Location: Borgo
(42.3939°N, 9.2791°E)
Time: 15:28:06
(UTC+00:00)

Okean 1 - Pass Details

Date: 27 February 2020
Orbit: 538 x 556 km, 82.5° (Epoch: 27 March)

Event Time Altitude Azimuth Distance (km) Brightness Sun altitude
Rises 18:41:58 0° 348° (NNW) 2,721 7.1 -17.8°
Reaches altitude 10° 18:44:09 10° 346° (NNW) 1,821 6.2 -18.2°
Maximum altitude 18:48:06 64° 265° (W) 604 3.7 -19.0°
Drops below altitude 10° 18:52:01 10° 184° (S) 1,796 5.9 -19.7°
Sets 18:54:09 0° 181° (S) 2,681 6.8 -20.1°
